Location: Santa Clara
(37.3540°N, 121.9540°W)
Time: 01:17:54
(UTC-07:00)

Hubble Space Telescope - Pass Details

Date: 31 May 2024
Orbit: 511 x 514 km, 28.5° (Epoch: 13 June)

Event Time Altitude Azimuth Distance (km) Brightness Sun altitude
Rises 22:21:16 0° 254° (WSW) 2,612 4.6 -19.0°
Reaches altitude 10° 22:24:12 10° 232° (SW) 1,724 3.4 -19.4°
Enters shadow 22:25:19 14° 217° (SW) 1,503 2.9 -19.6°
